Overview Statistics Trail Chart Weather Telemetry Raw packets
 

This is the latest recevied weather packets stored in our database for station/object K2CAT. If no packets are shown the sender has not sent any weather packets the latest 10 day(s).

<< 43 44 45 46 47 48 49 >>
Time Temp. Humidity Pressure Rain* Wind** Luminosity Snow
1777419535 17.22° C 45% 1016.8 hPa 0 mm - 5 W/m² -
1777419233 17.22° C 45% 1017 hPa 0 mm - 7 W/m² -
1777418930 17.22° C 45% 1016.7 hPa 0 mm - 11 W/m² -
1777418625 17.22° C 44% 1016.9 hPa 0 mm - 14 W/m² -
1777418322 17.22° C 43% 1016.7 hPa 0 mm - 15 W/m² -
1777418018 17.78° C 42% 1016.8 hPa 0 mm - 18 W/m² -
1777417714 17.78° C 43% 1016.8 hPa 0 mm - 26 W/m² -
1777417409 17.78° C 43% 1017.1 hPa 0 mm - 29 W/m² -
1777417106 17.78° C 41% 1016.9 hPa 0 mm - 40 W/m² -
1777416801 17.78° C 43% 1017.2 hPa 0 mm - 46 W/m² -
1777416497 17.78° C 43% 1017 hPa 0 mm - 44 W/m² -
1777416194 17.78° C 41% 1017.2 hPa 0 mm - 37 W/m² -
1777415893 17.78° C 42% 1016.9 hPa 0 mm - 37 W/m² -
1777415590 17.78° C 43% 1017.3 hPa 0 mm - 36 W/m² -
1777415285 17.78° C 43% 1017.5 hPa 0 mm - 41 W/m² -
1777414980 18.33° C 43% 1017.4 hPa 0 mm - 51 W/m² -
1777414680 18.33° C 41% 1017.4 hPa 0 mm - 56 W/m² -
1777414376 18.33° C 39% 1017.4 hPa 0 mm - 65 W/m² -
1777414076 18.33° C 39% 1017.5 hPa 0 mm - 73 W/m² -
1777413776 17.78° C 42% 1017.5 hPa 0 mm - 79 W/m² -
1777413472 18.33° C 39% 1017.5 hPa 0 mm - 75 W/m² -
1777413168 17.78° C 40% 1017.4 hPa 0 mm - 69 W/m² -
1777412863 18.33° C 42% 1017.5 hPa 0 mm - 69 W/m² -
1777412563 18.33° C 40% 1017.5 hPa 0 mm - 59 W/m² -
1777412261 18.33° C 40% 1017.6 hPa 0 mm - 54 W/m² -

* Rain latest hour (hover to see other rain measurements)
** Current wind speed in m/s (hover to see current wind gust speed)